TimeEST,TemperatureF,Dew PointF,Humidity,Sea Level PressureIn,VisibilityMPH,Wind Direction,Wind SpeedMPH,Gust SpeedMPH,PrecipitationIn,Events,Conditions,WindDirDegrees,DateUTC
12:53 AM,37.9,35.1,89,30.24,8.0,Calm,Calm,-,N/A,,Clear,0,2013-11-17 05:53:00
1:20 AM,37.4,35.6,93,30.26,9.0,Calm,Calm,-,N/A,,Mostly Cloudy,0,2013-11-17 06:20:00
1:53 AM,39.9,37.9,93,30.25,6.0,Calm,Calm,-,N/A,,Overcast,0,2013-11-17 06:53:00
2:53 AM,43.0,39.9,89,30.25,6.0,Calm,Calm,-,N/A,,Overcast,0,2013-11-17 07:53:00
3:53 AM,45.0,41.0,86,30.24,6.0,Calm,Calm,-,N/A,,Overcast,0,2013-11-17 08:53:00
4:35 AM,48.2,46.4,93,30.23,5.0,Calm,Calm,-,N/A,,Overcast,0,2013-11-17 09:35:00
4:53 AM,48.9,46.0,90,30.22,6.0,SE,4.6,-,N/A,,Overcast,140,2013-11-17 09:53:00
5:53 AM,48.9,46.0,90,30.21,7.0,Calm,Calm,-,N/A,,Overcast,0,2013-11-17 10:53:00
6:29 AM,50.0,46.4,87,30.20,8.0,Calm,Calm,-,N/A,,Overcast,0,2013-11-17 11:29:00
6:53 AM,50.0,46.9,89,30.20,4.0,Calm,Calm,-,N/A,,Overcast,0,2013-11-17 11:53:00
7:53 AM,50.0,46.9,89,30.19,5.0,SSE,3.5,-,N/A,,Overcast,160,2013-11-17 12:53:00
8:38 AM,53.6,48.2,82,30.19,7.0,Calm,Calm,-,N/A,,Overcast,0,2013-11-17 13:38:00
8:53 AM,53.1,48.0,83,30.19,9.0,Calm,Calm,-,N/A,,Overcast,0,2013-11-17 13:53:00
9:53 AM,55.0,50.0,83,30.19,7.0,SSE,6.9,-,N/A,,Overcast,160,2013-11-17 14:53:00
10:53 AM,54.0,48.9,83,30.16,5.0,Calm,Calm,-,N/A,,Haze,0,2013-11-17 15:53:00
11:46 AM,53.6,51.8,94,30.14,4.0,Calm,Calm,-,0.00,,Overcast,0,2013-11-17 16:46:00
11:53 AM,54.0,51.1,90,30.13,4.0,Calm,Calm,-,0.00,,Overcast,0,2013-11-17 16:53:00
12:17 PM,53.6,51.8,94,30.12,4.0,West,4.6,-,N/A,,Overcast,260,2013-11-17 17:17:00
12:24 PM,53.6,51.8,94,30.12,5.0,Calm,Calm,-,N/A,,Overcast,0,2013-11-17 17:24:00
12:53 PM,55.9,52.0,87,30.09,4.0,Calm,Calm,-,0.00,Rain,Light Rain,0,2013-11-17 17:53:00
1:00 PM,55.4,51.8,88,30.09,4.0,Calm,Calm,-,0.00,Rain,Light Rain,0,2013-11-17 18:00:00
1:22 PM,55.4,53.6,94,30.07,4.0,West,3.5,-,0.00,,Overcast,260,2013-11-17 18:22:00
1:53 PM,55.9,54.0,93,30.06,4.0,Calm,Calm,-,0.00,,Overcast,0,2013-11-17 18:53:00
2:53 PM,55.9,53.1,90,30.05,5.0,WSW,3.5,-,N/A,,Overcast,250,2013-11-17 19:53:00
3:10 PM,57.2,53.6,88,30.04,4.0,Calm,Calm,-,N/A,,Overcast,0,2013-11-17 20:10:00
3:53 PM,55.9,54.0,93,30.02,5.0,Calm,Calm,-,N/A,,Overcast,0,2013-11-17 20:53:00
4:03 PM,57.2,53.6,88,30.02,2.5,Calm,Calm,-,N/A,,Overcast,0,2013-11-17 21:03:00
4:53 PM,55.9,54.0,93,29.99,2.0,Calm,Calm,-,N/A,,Overcast,0,2013-11-17 21:53:00
5:36 PM,55.4,53.6,94,29.98,2.0,Calm,Calm,-,N/A,,Overcast,0,2013-11-17 22:36:00
5:45 PM,55.4,53.6,94,29.97,2.0,Calm,Calm,-,N/A,,Overcast,0,2013-11-17 22:45:00
5:53 PM,55.0,54.0,96,29.95,2.0,Calm,Calm,-,N/A,,Overcast,0,2013-11-17 22:53:00
6:53 PM,55.0,53.1,93,29.94,2.0,Calm,Calm,-,N/A,,Overcast,0,2013-11-17 23:53:00
7:00 PM,55.4,53.6,94,29.95,2.0,Calm,Calm,-,N/A,,Overcast,0,2013-11-18 00:00:00
7:53 PM,55.0,54.0,96,29.90,2.0,Calm,Calm,-,0.01,Rain,Light Rain,0,2013-11-18 00:53:00
8:53 PM,59.0,55.9,90,29.87,2.0,Calm,Calm,-,0.00,,Overcast,0,2013-11-18 01:53:00
9:00 PM,59.0,55.4,88,29.87,10.0,Calm,Calm,-,N/A,,Overcast,0,2013-11-18 02:00:00
9:53 PM,61.0,55.9,83,29.84,10.0,Variable,5.8,-,0.00,Rain,Light Rain,0,2013-11-18 02:53:00
10:31 PM,60.8,55.4,82,29.81,10.0,South,9.2,-,0.00,,Overcast,170,2013-11-18 03:31:00
10:53 PM,60.1,57.0,90,29.80,4.0,South,8.1,-,0.00,,Overcast,190,2013-11-18 03:53:00
11:03 PM,59.0,57.2,94,29.80,4.0,SSW,9.2,-,N/A,,Overcast,200,2013-11-18 04:03:00
11:53 PM,61.0,57.0,87,29.75,10.0,South,8.1,-,N/A,,Overcast,180,2013-11-18 04:53:00